FENGYUN 1C DEB, 32126

Orbit data source: Space-Track

FENGYUN 1C DEB, 32126 is space debris in SSO originally from a launch on Mon, 10 May 1999 UTC launched from the Taiyaun Space Center, China (TSC). Fengyun 1C debris stems from the Chinese weather satellite Fengyun-1C, which was intentionally destroyed by a Chinese anti-satellite missile in 2007. This event dramatically increased the amount of space debris, with thousands of trackable fragments posing hazards to satellites and human spaceflight. The Fengyun 1C debris cloud has become a focal point in discussions about space sustainability and the need for international regulations to prevent the creation of new debris.

Loading next visibility...
Identifier
32126, 1999-025CRU
Orbit
SSO
Country
Flag of CNCN / PRC
Related business
Manufacturer
Unknown
Mission
Spacecraft
Bus & Motor
Unknown
Mass
Unknown
Launch date (UTC)
1999-05-10 (27 years ago)
Launch vehicle
Unknown
Launch site
Taiyaun Space Center, China (TSC)
Object type
Payload
Rocket body
Debris
Shape & HBR
Unknown shape, 0.1 m
Radar Cross Section
Small (<0.1 m²)

Expand to show TLE details & history
Last TLE update: 3 days ago

TLE from 3 days ago
0 FENGYUN 1C DEB
1 32126U 99025CRU 26205.85280132  .00000774  00000-0  88031-3 0  9994
2 32126  99.0921  70.4437 0282393  40.5019 321.6769 13.57199139647545
Epoch: 2026-07-24T20:28Z
TLE epoch observation values (Epoch: 2026-07-24T20:28:02.034Z)
Latitude
-0.00008°
Longitude
-179.13825°
Altitude
886.553 km
Speed
7.489 km/s
True Right ascension
04h 41m 46s
True Declination
0° 00' 00"
Sunlit
Object was in daylight at epoch
Visualization orbit readout
Latitude
Unknown
Longitude
Unknown
Altitude
Unknown
Speed
Unknown
Apparent Right ascension
Unknown
Apparent Declination
Unknown
Sunlit
N/A
Visualization observer readout
Local Sidereal Time
10:55:40
Azimuth
Unknown
Elevation
Unknown
Doppler factor
Unknown
Orbital elements
Apogee altitude
1,252.718 km
Perigee altitude
833.575 km
Semi-major axis
7,421.284 km
Eccentricity
0.02824
Inclination
99.0921°
RAAN
70.4437°
Arg. of periapsis
40.5019°
True anomaly
319.61364°
Mean anomaly
321.6769°
Eccentric anomaly
320.65102°
Mean motion
3.39488 °/min
Orbital period
106.04 mins
BSTAR
0.00088031
Loading maneuver chart data...
Computing Atmospheric mass density...
Loading historical data...
Loading historical data...
Loading historical data...
Loading historical data...
Loading historical data...
Loading historical data...
Loading historical data...

Documentation

Showing up to 5 results
|